| time (UTC) | temp C | wind direction | speed KPH | gust KPH | rain 1hr cm | rain 24hr cm | rain mn cm | humidity % | barometer mb |
| 20260504110627 | 7 | 115 | 0.0 | 0.0 | 0.00 | 0.00 | 0.00 | 90 | 1007.4 |
| 20260504081815 | 8 | 96 | 0.0 | 0.0 | 0.00 | 0.00 | 0.00 | 89 | 1008.8 |
| 20260504081216 | 8 | 96 | 0.0 | 0.0 | 0.00 | 0.00 | 0.00 | 89 | 1008.8 |
| 20260504080626 | 8 | 96 | 0.0 | 0.0 | 0.00 | 0.00 | 0.00 | 89 | 1008.8 |
| 20260504045731 | 10 | 105 | 1.6 | 9.7 | 0.00 | 0.00 | 0.00 | 77 | 1010.8 |
| 20260504045152 | 10 | 105 | 1.6 | 9.7 | 0.00 | 0.00 | 0.00 | 77 | 1010.8 |
| 20260504044537 | 10 | 105 | 1.6 | 9.7 | 0.00 | 0.00 | 0.00 | 77 | 1010.8 |
| 20260504043915 | 9 | 97 | 0.0 | 0.0 | 0.00 | 0.00 | 0.00 | 82 | 1010.4 |
| 20260504042719 | 9 | 97 | 0.0 | 4.8 | 0.00 | 0.00 | 0.00 | 81 | 1010.4 |
| 20260504042142 | 9 | 97 | 0.0 | 4.8 | 0.00 | 0.00 | 0.00 | 81 | 1010.4 |
| 20260504041542 | 9 | 97 | 0.0 | 4.8 | 0.00 | 0.00 | 0.00 | 81 | 1010.4 |
| 20260504040949 | 9 | 97 | 0.0 | 0.0 | 0.00 | 0.00 | 0.00 | 82 | 1010.4 |
| 20260504035738 | 9 | 97 | 0.0 | 4.8 | 0.00 | 0.00 | 0.00 | 80 | 1010.4 |
| 20260504035142 | 9 | 97 | 0.0 | 4.8 | 0.00 | 0.00 | 0.00 | 80 | 1010.4 |
| 20260504033953 | 9 | 98 | 0.0 | 0.0 | 0.00 | 0.00 | 0.00 | 79 | 1010.4 |
| 20260504033342 | 9 | 98 | 0.0 | 0.0 | 0.00 | 0.00 | 0.00 | 79 | 1010.4 |
| 20260504032714 | 9 | 98 | 0.0 | 0.0 | 0.00 | 0.00 | 0.00 | 78 | 1010.4 |
| 20260504032125 | 9 | 98 | 0.0 | 0.0 | 0.00 | 0.00 | 0.00 | 78 | 1010.4 |
| 20260504031536 | 9 | 98 | 0.0 | 0.0 | 0.00 | 0.00 | 0.00 | 78 | 1010.4 |
| 20260504030952 | 10 | 98 | 0.0 | 0.0 | 0.00 | 0.00 | 0.00 | 76 | 1010.4 |
| 20260504030354 | 10 | 98 | 0.0 | 0.0 | 0.00 | 0.00 | 0.00 | 76 | 1010.4 |
| 20260504025115 | 10 | 94 | 4.8 | 8.0 | 0.00 | 0.00 | 0.00 | 75 | 1010.4 |
| 20260504024555 | 10 | 94 | 4.8 | 8.0 | 0.00 | 0.00 | 0.00 | 75 | 1010.4 |
| 20260504023317 | 10 | 117 | 0.0 | 0.0 | 0.00 | 0.00 | 0.00 | 73 | 1010.4 |
| 20260504022747 | 10 | 117 | 0.0 | 0.0 | 0.00 | 0.00 | 0.00 | 73 | 1010.4 |
| 20260504021538 | 10 | 117 | 0.0 | 0.0 | 0.00 | 0.00 | 0.00 | 73 | 1010.4 |
| 20260504020353 | 11 | 117 | 0.0 | 0.0 | 0.00 | 0.00 | 0.00 | 69 | 1010.4 |
| 20260504015734 | 11 | 117 | 0.0 | 0.0 | 0.00 | 0.00 | 0.00 | 65 | 1010.1 |
| 20260504015121 | 11 | 117 | 0.0 | 0.0 | 0.00 | 0.00 | 0.00 | 65 | 1010.1 |
| 20260504014530 | 11 | 117 | 0.0 | 0.0 | 0.00 | 0.00 | 0.00 | 65 | 1010.1 |
| 20260504013925 | 11 | 115 | 0.0 | 3.2 | 0.00 | 0.00 | 0.00 | 66 | 1010.1 |
| 20260504013334 | 11 | 115 | 0.0 | 3.2 | 0.00 | 0.00 | 0.00 | 66 | 1010.1 |
| 20260504012735 | 12 | 104 | 1.6 | 8.0 | 0.00 | 0.00 | 0.00 | 62 | 1010.4 |
| 20260504011522 | 12 | 106 | 0.0 | 0.0 | 0.00 | 0.00 | 0.00 | 65 | 1010.4 |
| 20260504010939 | 12 | 106 | 0.0 | 0.0 | 0.00 | 0.00 | 0.00 | 65 | 1010.4 |
| 20260504010354 | 12 | 106 | 0.0 | 0.0 | 0.00 | 0.00 | 0.00 | 65 | 1010.4 |
| 20260504005728 | 13 | 106 | 0.0 | 0.0 | 0.00 | 0.00 | 0.00 | 57 | 1010.4 |
| 20260504004531 | 13 | 106 | 0.0 | 0.0 | 0.00 | 0.00 | 0.00 | 56 | 1010.4 |
| 20260504003953 | 13 | 106 | 0.0 | 0.0 | 0.00 | 0.00 | 0.00 | 56 | 1010.4 |
| 20260504003337 | 13 | 106 | 0.0 | 0.0 | 0.00 | 0.00 | 0.00 | 56 | 1010.4 |
| 20260504002742 | 13 | 106 | 0.0 | 0.0 | 0.00 | 0.00 | 0.00 | 51 | 1010.4 |
| 20260504002127 | 13 | 106 | 0.0 | 0.0 | 0.00 | 0.00 | 0.00 | 51 | 1010.4 |
| 20260504001533 | 14 | 106 | 0.0 | 1.6 | 0.00 | 0.00 | 0.00 | 50 | 1010.4 |
| 20260504000928 | 14 | 106 | 0.0 | 1.6 | 0.00 | 0.00 | 0.00 | 50 | 1010.4 |
| 20260504000328 | 14 | 106 | 0.0 | 1.6 | 0.00 | 0.00 | 0.00 | 50 | 1010.4 |
| 20260503234521 | 16 | 75 | 0.0 | 3.2 | 0.00 | 0.00 | 0.00 | 40 | 1010.4 |
| 20260503231524 | 16 | 200 | 0.0 | 1.6 | 0.00 | 0.00 | 0.00 | 40 | 1011.1 |
| 20260503230953 | 16 | 200 | 0.0 | 1.6 | 0.00 | 0.00 | 0.00 | 40 | 1011.1 |
| 20260503230351 | 16 | 200 | 0.0 | 1.6 | 0.00 | 0.00 | 0.00 | 40 | 1011.1 |
| 20260503225724 | 16 | 190 | 0.0 | 4.8 | 0.00 | 0.00 | 0.00 | 40 | 1011.1 |
| 20260503225148 | 16 | 190 | 0.0 | 4.8 | 0.00 | 0.00 | 0.00 | 40 | 1011.1 |
| 20260503224527 | 16 | 140 | 0.0 | 9.7 | 0.00 | 0.00 | 0.00 | 37 | 1011.5 |
| 20260503223912 | 16 | 140 | 0.0 | 9.7 | 0.00 | 0.00 | 0.00 | 37 | 1011.5 |
| 20260503223351 | 16 | 140 | 0.0 | 9.7 | 0.00 | 0.00 | 0.00 | 37 | 1011.5 |
| 20260503222727 | 16 | 107 | 4.8 | 14.5 | 0.00 | 0.00 | 0.00 | 38 | 1011.5 |
| 20260503222144 | 16 | 107 | 4.8 | 14.5 | 0.00 | 0.00 | 0.00 | 38 | 1011.5 |
| 20260503221527 | 16 | 155 | 3.2 | 19.3 | 0.00 | 0.00 | 0.00 | 37 | 1011.5 |
| 20260503220909 | 16 | 155 | 3.2 | 19.3 | 0.00 | 0.00 | 0.00 | 37 | 1011.5 |
| 20260503220333 | 16 | 155 | 3.2 | 19.3 | 0.00 | 0.00 | 0.00 | 37 | 1011.5 |
| 20260503215723 | 16 | 76 | 6.4 | 16.1 | 0.00 | 0.00 | 0.00 | 37 | 1011.5 |
| 20260503215141 | 16 | 76 | 6.4 | 16.1 | 0.00 | 0.00 | 0.00 | 37 | 1011.5 |
| 20260503214519 | 17 | 252 | 4.8 | 11.3 | 0.00 | 0.00 | 0.00 | 39 | 1011.5 |
| 20260503213944 | 17 | 252 | 4.8 | 11.3 | 0.00 | 0.00 | 0.00 | 39 | 1011.5 |
| 20260503213328 | 17 | 252 | 4.8 | 11.3 | 0.00 | 0.00 | 0.00 | 39 | 1011.5 |
| 20260503212440 | 16 | 174 | 0.0 | 20.9 | 0.00 | 0.00 | 0.00 | 36 | 1011.5 |
| 20260503211827 | 16 | 174 | 0.0 | 20.9 | 0.00 | 0.00 | 0.00 | 36 | 1011.5 |
| 20260503211227 | 16 | 91 | 4.8 | 19.3 | 0.00 | 0.00 | 0.00 | 39 | 1011.5 |
| 20260503210647 | 16 | 91 | 4.8 | 19.3 | 0.00 | 0.00 | 0.00 | 39 | 1011.5 |
| 20260503210017 | 16 | 86 | 3.2 | 17.7 | 0.00 | 0.00 | 0.00 | 41 | 1011.1 |
| 20260503205430 | 16 | 86 | 3.2 | 17.7 | 0.00 | 0.00 | 0.00 | 41 | 1011.1 |
| 20260503203914 | 16 | 69 | 4.8 | 14.5 | 0.00 | 0.00 | 0.00 | 41 | 1011.5 |
| 20260503203343 | 16 | 69 | 4.8 | 14.5 | 0.00 | 0.00 | 0.00 | 41 | 1011.5 |
| 20260503202733 | 16 | 130 | 3.2 | 14.5 | 0.00 | 0.00 | 0.00 | 41 | 1012.1 |
| 20260503202127 | 16 | 130 | 3.2 | 14.5 | 0.00 | 0.00 | 0.00 | 41 | 1012.1 |
| 20260503201509 | 16 | 165 | 3.2 | 17.7 | 0.00 | 0.00 | 0.00 | 42 | 1012.1 |
| 20260503200953 | 16 | 165 | 3.2 | 17.7 | 0.00 | 0.00 | 0.00 | 42 | 1012.1 |
| 20260503200321 | 16 | 165 | 3.2 | 17.7 | 0.00 | 0.00 | 0.00 | 42 | 1012.1 |
| 20260503195119 | 16 | 75 | 14.5 | 17.7 | 0.00 | 0.00 | 0.00 | 41 | 1012.5 |
| 20260503194527 | 15 | 146 | 6.4 | 12.9 | 0.00 | 0.00 | 0.00 | 40 | 1013.2 |
| 20260503193935 | 15 | 146 | 6.4 | 12.9 | 0.00 | 0.00 | 0.00 | 40 | 1013.2 |
| 20260503193341 | 15 | 146 | 6.4 | 12.9 | 0.00 | 0.00 | 0.00 | 40 | 1013.2 |
| 20260503192753 | 15 | 179 | 0.0 | 19.3 | 0.00 | 0.00 | 0.00 | 39 | 1013.2 |
| 20260503192120 | 15 | 179 | 0.0 | 19.3 | 0.00 | 0.00 | 0.00 | 39 | 1013.2 |
| 20260503190909 | 15 | 157 | 0.0 | 24.1 | 0.00 | 0.00 | 0.00 | 40 | 1013.5 |
| 20260503185750 | 15 | 195 | 1.6 | 25.7 | 0.00 | 0.00 | 0.00 | 39 | 1013.8 |
| 20260503185141 | 15 | 195 | 1.6 | 25.7 | 0.00 | 0.00 | 0.00 | 39 | 1013.8 |
| 20260503184540 | 15 | 195 | 1.6 | 25.7 | 0.00 | 0.00 | 0.00 | 39 | 1013.8 |
| 20260503183353 | 15 | 161 | 4.8 | 19.3 | 0.00 | 0.00 | 0.00 | 41 | 1013.8 |
| 20260503182749 | 14 | 296 | 6.4 | 19.3 | 0.00 | 0.00 | 0.00 | 42 | 1013.8 |
| 20260503182146 | 14 | 296 | 6.4 | 19.3 | 0.00 | 0.00 | 0.00 | 42 | 1013.8 |
| 20260503181545 | 14 | 296 | 6.4 | 19.3 | 0.00 | 0.00 | 0.00 | 42 | 1013.8 |
| 20260503180335 | 13 | 240 | 3.2 | 16.1 | 0.00 | 0.00 | 0.00 | 44 | 1014.2 |
| 20260503175731 | 13 | 200 | 1.6 | 19.3 | 0.00 | 0.00 | 0.00 | 44 | 1014.5 |
| 20260503175123 | 13 | 200 | 1.6 | 19.3 | 0.00 | 0.00 | 0.00 | 44 | 1014.5 |
| 20260503174550 | 13 | 200 | 1.6 | 19.3 | 0.00 | 0.00 | 0.00 | 44 | 1014.5 |
| 20260503173918 | 13 | 151 | 4.8 | 20.9 | 0.00 | 0.00 | 0.00 | 44 | 1014.5 |
| 20260503173309 | 13 | 151 | 4.8 | 20.9 | 0.00 | 0.00 | 0.00 | 44 | 1014.5 |
| 20260503172730 | 14 | 291 | 4.8 | 12.9 | 0.00 | 0.00 | 0.00 | 49 | 1014.9 |
| 20260503172124 | 14 | 291 | 4.8 | 12.9 | 0.00 | 0.00 | 0.00 | 49 | 1014.9 |
| 20260503171538 | 14 | 291 | 4.8 | 12.9 | 0.00 | 0.00 | 0.00 | 49 | 1014.9 |
| 20260503170935 | 13 | 84 | 8.0 | 16.1 | 0.00 | 0.00 | 0.00 | 45 | 1014.9 |
| 20260503170347 | 13 | 84 | 8.0 | 16.1 | 0.00 | 0.00 | 0.00 | 45 | 1014.9 |
| 20260503150929 | 10 | 211 | 1.6 | 17.7 | 0.00 | 0.00 | 0.00 | 51 | 1015.9 |
| 20260503150317 | 10 | 211 | 1.6 | 17.7 | 0.00 | 0.00 | 0.00 | 51 | 1015.9 |
| 20260503130953 | 3 | 238 | 0.0 | 0.0 | 0.00 | 0.00 | 0.00 | 99 | 1015.9 |